Consulta los datos en tiempo real de la estación municipal de St. Hilari Sacalm
| Hora UTC | 02:35 |
|---|---|
| Temperatura | 18.0 ºC |
| Humedad | 66.9 % |
| Presión | 1020.6 hPa |
| Pluja | 0.0 mm |
| Velocidad viento | 0.0 km/h |
| Dirección viento | NNE |
| Radiación solar | 0.1 W/m² |
| Temperatura (ºC) | Humedad (%) | Presión (hPa) | Velocidad viento (km/h) | Precipitación (mm) | Radiación solar (W/m²) | |||||||||||||
|---|---|---|---|---|---|---|---|---|---|---|---|---|---|---|---|---|---|---|
| Hora UTC | Aire | Humedad | Presión | Vel. | Dir. | Vel. Max | Dir. | Intent. máx 5 min. | Rad. Sol. | |||||||||
| 00:05 | 20.9 | 49.6 | 1020.3 | 3.6 | WNW | 3.6 | NW | 0.0 | 0.1 | |||||||||
| 00:10 | 20.9 | 49.9 | 1020.3 | 2.7 | WNW | 8.8 | NW | 0.0 | 0.1 | |||||||||
| 00:15 | 20.8 | 50.7 | 1020.3 | 0.8 | WNW | 8.8 | WNW | 0.0 | 0.1 | |||||||||
| 00:20 | 20.5 | 52.6 | 1020.3 | 0.2 | WSW | 11.5 | WSW | 0.0 | 0.1 | |||||||||
| 00:25 | 19.8 | 55.2 | 1020.4 | 0.1 | SSE | 6.1 | S | 0.0 | 0.1 | |||||||||
| 00:30 | 19.3 | 56.6 | 1020.4 | 0.0 | NNE | 0.0 | S | 0.0 | 0.1 | |||||||||
| 00:35 | 19.1 | 57.8 | 1020.4 | 0.0 | NNE | 0.0 | NNE | 0.0 | 0.1 | |||||||||
| 00:40 | 19.0 | 58.1 | 1020.4 | 0.0 | NNE | 0.0 | NW | 0.0 | 0.1 | |||||||||
| 00:45 | 19.0 | 58.1 | 1020.3 | 0.0 | NNE | 0.0 | SSW | 0.0 | 0.1 | |||||||||
| 00:50 | 18.9 | 59.1 | 1020.3 | 0.1 | S | 3.4 | S | 0.0 | 0.1 | |||||||||
| 00:55 | 18.7 | 59.5 | 1020.4 | 0.0 | NNE | 0.0 | SE | 0.0 | 0.1 | |||||||||
| 01:00 | 18.7 | 60.1 | 1020.4 | 0.0 | NNE | 0.0 | E | 0.0 | 0.1 | |||||||||
| 01:05 | 18.6 | 60.5 | 1020.4 | 0.0 | NNE | 0.0 | SE | 0.0 | 0.1 | |||||||||
| 01:10 | 18.5 | 60.6 | 1020.4 | 0.0 | NNE | 0.0 | SSE | 0.0 | 0.1 | |||||||||
| 01:15 | 18.4 | 61.4 | 1020.4 | 0.0 | NNE | 0.0 | SW | 0.0 | 0.1 | |||||||||
| 01:20 | 18.4 | 63.1 | 1020.5 | 0.0 | NNE | 0.0 | S | 0.0 | 0.1 | |||||||||
| 01:25 | 18.5 | 63.8 | 1020.5 | 0.0 | NNE | 0.0 | S | 0.0 | 0.1 | |||||||||
| 01:30 | 18.8 | 62.9 | 1020.5 | 0.0 | NNE | 0.0 | S | 0.0 | 0.1 | |||||||||
| 01:35 | 19.0 | 62.3 | 1020.5 | 1.3 | SE | 6.1 | SE | 0.0 | 0.1 | |||||||||
| 01:40 | 19.3 | 61.4 | 1020.5 | 0.2 | SSE | 6.1 | SSE | 0.0 | 0.1 | |||||||||
| 01:45 | 19.4 | 61.0 | 1020.5 | 0.0 | NNE | 0.0 | SE | 0.0 | 0.1 | |||||||||
| 01:50 | 19.4 | 61.4 | 1020.6 | 0.0 | NNE | 0.0 | S | 0.0 | 0.1 | |||||||||
| 01:55 | 19.2 | 61.9 | 1020.6 | 0.0 | NNE | 0.0 | S | 0.0 | 0.1 | |||||||||
| 02:00 | 18.9 | 62.3 | 1020.6 | 0.0 | NNE | 0.0 | S | 0.0 | 0.1 | |||||||||
| 02:05 | 18.8 | 62.7 | 1020.6 | 0.0 | NNE | 0.0 | SW | 0.0 | 0.1 | |||||||||
| 02:10 | 18.6 | 63.9 | 1020.6 | 0.0 | NNE | 0.0 | SW | 0.0 | 0.1 | |||||||||
| 02:15 | 18.5 | 64.9 | 1020.6 | 0.0 | NNE | 0.0 | SSW | 0.0 | 0.1 | |||||||||
| 02:20 | 18.6 | 64.6 | 1020.6 | 0.0 | NNE | 0.0 | SSW | 0.0 | 0.1 | |||||||||
| 02:25 | 18.4 | 65.5 | 1020.6 | 0.0 | NNE | 0.0 | SSW | 0.0 | 0.1 | |||||||||
| 02:30 | 18.1 | 66.1 | 1020.6 | 0.0 | NNE | 0.0 | SW | 0.0 | 0.1 | |||||||||
| 02:35 | 18.0 | 66.9 | 1020.6 | 0.0 | NNE | 0.0 | SW | 0.0 | 0.1 | |||||||||
| Máxima | 20.9 | 66.9 | 1020.6 | 3.6 | WNW | 11.5 | WSW | 0.0 | 0.1 | |||||||||
| Mínima | 18.0 | 49.6 | 1020.3 | |||||||||||||||
| Total | 0.0 | |||||||||||||||||